Regional Weather Roundup
Issued by NWS Goodland, KS

Home | Current Version | Previous Version | Text Only | Print | Product List | Glossary Off
Versions: 1 2 3 4 5 6 7 8 9 10 11 12 13 14 15 16 17 18 19 20 21 22 23 24 25 26 27 28 29 30 31 32 33 34 35 36 37 38 39 40 41 42 43 44 45 46 47 48 49 50

000
ASUS43 KGLD 021059
RWRGLD

GOODLAND FORECAST AREA HOURLY WEATHER ROUNDUP
NATIONAL WEATHER SERVICE GOODLAND KS
400 AM MST MON MAR 02 2015

...OFFICIAL OBSERVATIONS...

CITY           SKY/WX    TMP DP  RH WIND       PRES   REMARKS
GOODLAND KS    CLEAR     23  20  88 S8        30.23F
HILL CITY KS   MOCLDY    28  21  75 SE3       30.34F
IMPERIAL NEB     N/A     29  18  63 S10       30.22F WCI  20
MCCOOK NEB     CLOUDY    32  20  61 SE7       30.28F
AKRON CO       CLOUDY    26  19  74 S17G26    30.11F WCI  13
BURLINGTON CO  CLEAR     23  19  85 S9        30.19F
LIMON CO       CLOUDY    21  19  92 S20G26    30.08F WCI   6
$$

...UNOFFICIAL OBSERVATIONS...

CITY           SKY/WX    TMP DP  RH WIND       PRES   REMARKS
COLBY KS       PTCLDY    27  25  93 SE7       30.27S
GOVE KS          N/A     23  32 100 MISG        N/A
LENORA KS        N/A     26  32 100 S7          N/A
NORTON KS      CLOUDY    30  19  64 SE7       30.31F
SHARON SPRINGS   N/A     24  21  89 CALM        N/A
KIT CARSON CO    N/A     22  19  88 MISG        N/A
YUMA CO          N/A     28  18  66 SE8         N/A
$$


USA.gov is the U.S. government's official web portal to all federal, state and local government web resources and services.